Location: Unspecified
(0.0000°N, 0.0000°E)
Time: 20:46:13
(UTC+00:00)

Altair - All Passes

Search period start: 26 April 2018 00:00
Search period end: 06 May 2018 00:00
Orbit: 1502 x 1682 km, 47.2° (Epoch: 25 April)

Date Brightness Start Highest point End Pass type
(mag) Time Alt. Az. Time Alt. Az. Time Alt. Az.
26 Apr - 00:12:37 10° NW 00:21:40 66° SW 00:30:58 10° SSE night (unlit)
26 Apr - 02:25:07 10° SW 02:26:56 11° SW 02:28:46 10° SSW night (unlit)
26 Apr - 10:57:22 10° SSW 11:07:18 57° SE 11:17:02 10° NE daylight
26 Apr - 13:03:21 10° WSW 13:11:59 32° NW 13:20:30 10° N daylight
26 Apr - 21:45:25 10° N 21:51:58 22° NE 21:58:31 10° E visible
26 Apr - 23:47:25 10° NW 23:56:33 74° SW 00:05:53 10° SSE night (unlit)
27 Apr - 01:58:04 10° WSW 02:01:39 13° SW 02:05:18 10° SSW night (unlit)
27 Apr - 10:32:19 10° SSW 10:42:06 51° SE 10:51:42 10° ENE daylight
27 Apr - 12:37:47 10° WSW 12:46:47 36° NW 12:55:38 10° NNE daylight
27 Apr - 21:20:48 10° N 21:26:45 19° NE 21:32:42 10° E visible
27 Apr - 23:22:15 10° NW 23:31:25 82° SW 23:40:46 10° SE night (unlit)
28 Apr - 01:31:42 10° WSW 01:36:22 15° SW 01:41:08 10° SSW night (unlit)
28 Apr - 10:07:19 10° SSW 10:16:54 46° SE 10:26:20 10° ENE daylight
28 Apr - 12:12:17 10° WSW 12:21:35 41° NW 12:30:43 10° NNE daylight
28 Apr - 20:56:19 10° N 21:01:32 16° NE 21:06:43 10° E visible
28 Apr - 22:57:06 10° NW 23:06:17 89° NE 23:15:37 10° SE visible
29 Apr - 01:05:39 10° W 01:11:07 17° SW 01:16:43 10° S night (unlit)
29 Apr - 09:42:21 10° SSW 09:51:40 41° SE 10:00:54 10° ENE daylight
29 Apr - 11:46:51 10° WSW 11:56:22 46° NW 12:05:46 10° NNE daylight
29 Apr - 20:32:00 10° NNE 20:36:18 14° NE 20:40:34 10° ENE visible
29 Apr - 22:31:59 10° NW 22:41:09 81° NE 22:50:27 10° SE visible
30 Apr - 00:39:46 10° W 00:45:53 20° SW 00:52:09 10° S night (unlit)
30 Apr - 09:17:25 10° SSW 09:26:28 36° SE 09:35:25 10° ENE daylight
30 Apr - 11:21:26 10° WSW 11:31:10 51° NW 11:40:47 10° NNE daylight
30 Apr - 20:08:03 10° NNE 20:11:02 12° NE 20:14:01 10° ENE visible
30 Apr - 22:06:54 10° NNW 22:16:02 72° NE 22:25:14 10° SE visible
01 May - 00:14:01 10° W 00:20:40 22° SW 00:27:29 10° S night (unlit)
01 May - 08:52:30 10° S 09:01:14 32° SE 09:09:53 10° ENE daylight
01 May - 10:56:05 10° SW 11:05:59 58° NW 11:15:46 10° NNE daylight
01 May - 21:41:51 10° NNW 21:50:54 64° NE 22:00:01 10° SE visible
01 May - 23:48:20 10° W 23:55:28 25° SW 00:02:45 10° S night (unlit)
02 May - 08:27:39 10° S 08:35:59 29° SE 08:44:17 10° ENE daylight
02 May - 10:30:46 10° SW 10:40:47 64° NW 10:50:43 10° NNE daylight
02 May - 12:43:39 10° WNW 12:46:09 11° NW 12:48:39 10° NNW daylight
02 May - 21:16:49 10° NNW 21:25:47 57° NE 21:34:44 10° SE visible
02 May - 23:22:45 10° WNW 23:30:17 29° SW 23:37:58 10° S night (unlit)
03 May - 08:02:52 10° S 08:10:45 25° SE 08:18:37 10° E daylight
03 May - 10:05:29 10° SW 10:15:36 71° NW 10:25:38 10° NNE daylight
03 May - 12:16:37 10° WNW 12:20:50 13° NW 12:25:02 10° NNW daylight
03 May - 20:51:49 10° NNW 21:00:38 51° NE 21:09:26 10° ESE visible
03 May - 22:57:14 10° WNW 23:05:06 32° SW 23:13:07 10° SSE visible
04 May - 07:38:08 10° S 07:45:30 22° SE 07:52:50 10° E daylight
04 May - 09:40:14 10° SW 09:50:24 79° NW 10:00:31 10° NE daylight
04 May - 11:50:12 10° WNW 11:55:32 15° NW 12:00:50 10° NNW daylight
04 May - 20:26:51 10° NNW 20:35:30 45° NE 20:44:06 10° ESE visible
04 May - 22:31:46 10° WNW 22:39:56 37° SW 22:48:14 10° SSE visible
05 May - 07:13:29 10° S 07:20:14 20° SE 07:26:58 10° E daylight
05 May - 09:15:02 10° SW 09:25:13 87° NW 09:35:22 10° NE daylight
05 May - 11:24:03 10° W 11:30:15 18° NW 11:36:25 10° N daylight
05 May - 20:01:55 10° NNW 20:10:21 40° NE 20:18:43 10° ESE visible
05 May - 22:06:22 10° WNW 22:14:47 41° SW 22:23:19 10° SSE visible
